Year,Month,Day,Hour,Minute,Value (Times are PST for temperature in C)
2019,04,01,00,00,8.10
2019,04,01,00,01,8.10
2019,04,01,00,02,8.10
2019,04,01,00,03,8.10
2019,04,01,00,04,8.10
2019,04,01,00,05,8.10
2019,04,01,00,06,8.00
2019,04,01,00,07,8.00
2019,04,01,00,08,8.00
2019,04,01,00,09,8.00
2019,04,01,00,10,8.00
2019,04,01,00,11,8.00
2019,04,01,00,12,8.00
2019,04,01,00,13,8.00
2019,04,01,00,14,7.90
2019,04,01,00,15,7.90
2019,04,01,00,16,7.90
2019,04,01,00,17,7.90
2019,04,01,00,18,7.90
2019,04,01,00,19,7.90
2019,04,01,00,20,7.90
2019,04,01,00,21,7.90
2019,04,01,00,22,7.90
2019,04,01,00,23,7.90
2019,04,01,00,24,7.90
2019,04,01,00,25,7.80
2019,04,01,00,26,7.80
2019,04,01,00,27,7.80
2019,04,01,00,28,7.80
2019,04,01,00,29,7.80
2019,04,01,00,30,7.80
2019,04,01,00,31,7.80
2019,04,01,00,32,7.80
2019,04,01,00,33,7.70
2019,04,01,00,34,7.70
2019,04,01,00,35,7.70
2019,04,01,00,36,7.70
2019,04,01,00,37,7.70
2019,04,01,00,38,7.70
2019,04,01,00,39,7.70
2019,04,01,00,40,7.70
2019,04,01,00,41,7.70
2019,04,01,00,42,7.70
2019,04,01,00,43,7.70
2019,04,01,00,44,7.70
2019,04,01,00,45,7.70
2019,04,01,00,46,7.70
2019,04,01,00,47,7.70
2019,04,01,00,48,7.70
2019,04,01,00,49,7.70
2019,04,01,00,50,7.60
2019,04,01,00,51,7.60
2019,04,01,00,52,7.60
2019,04,01,00,53,7.60
2019,04,01,00,54,7.60
2019,04,01,00,55,7.60
2019,04,01,00,56,7.60
2019,04,01,00,57,7.60
2019,04,01,00,58,7.50
2019,04,01,00,59,7.50
2019,04,01,01,00,7.50
2019,04,01,01,01,7.50
2019,04,01,01,02,7.50
2019,04,01,01,03,7.50
2019,04,01,01,04,7.40
2019,04,01,01,05,7.40
2019,04,01,01,06,7.40
2019,04,01,01,07,7.40
2019,04,01,01,08,7.40
2019,04,01,01,09,7.40
2019,04,01,01,10,7.30
2019,04,01,01,11,7.30
2019,04,01,01,12,7.30
2019,04,01,01,13,7.30
2019,04,01,01,14,7.30
2019,04,01,01,15,7.20
2019,04,01,01,16,7.20
2019,04,01,01,17,7.20
2019,04,01,01,18,7.20
2019,04,01,01,19,7.20
2019,04,01,01,20,7.20
2019,04,01,01,21,7.20
2019,04,01,01,22,7.20
2019,04,01,01,23,7.20
2019,04,01,01,24,7.20
2019,04,01,01,25,7.20
2019,04,01,01,26,7.20
2019,04,01,01,27,7.20
2019,04,01,01,28,7.20
2019,04,01,01,29,7.20
2019,04,01,01,30,7.20
2019,04,01,01,31,7.20
2019,04,01,01,32,7.20
2019,04,01,01,33,7.20
2019,04,01,01,34,7.20
2019,04,01,01,35,7.20
2019,04,01,01,36,7.20
2019,04,01,01,37,7.20
2019,04,01,01,38,7.20
2019,04,01,01,39,7.20
2019,04,01,01,40,7.20
2019,04,01,01,41,7.20
2019,04,01,01,42,7.20
2019,04,01,01,43,7.20
2019,04,01,01,44,7.20
2019,04,01,01,45,7.20
2019,04,01,01,46,7.20
2019,04,01,01,47,7.20
2019,04,01,01,48,7.20
2019,04,01,01,49,7.20
2019,04,01,01,50,7.20
2019,04,01,01,51,7.20
2019,04,01,01,52,7.20
2019,04,01,01,53,7.20
2019,04,01,01,54,7.20
2019,04,01,01,55,7.30
2019,04,01,01,56,7.30
2019,04,01,01,57,7.30
2019,04,01,01,58,7.30
2019,04,01,01,59,7.40
2019,04,01,02,00,7.40
2019,04,01,02,01,7.40
2019,04,01,02,02,7.40
2019,04,01,02,03,7.40
2019,04,01,02,04,7.40
2019,04,01,02,05,7.40
2019,04,01,02,06,7.40
2019,04,01,02,07,7.40
2019,04,01,02,08,7.40
2019,04,01,02,09,7.40
2019,04,01,02,10,7.30
2019,04,01,02,11,7.30
2019,04,01,02,12,7.30
2019,04,01,02,13,7.30
2019,04,01,02,14,7.20
2019,04,01,02,15,7.20
2019,04,01,02,16,7.20
2019,04,01,02,17,7.20
2019,04,01,02,18,7.10
2019,04,01,02,19,7.00
2019,04,01,02,20,7.00
2019,04,01,02,21,6.90
2019,04,01,02,22,6.90
2019,04,01,02,23,6.80
2019,04,01,02,24,6.80
2019,04,01,02,25,6.80
2019,04,01,02,26,6.70
2019,04,01,02,27,6.70
2019,04,01,02,28,6.70
2019,04,01,02,29,6.60
2019,04,01,02,30,6.60
2019,04,01,02,31,6.50
2019,04,01,02,32,6.50
2019,04,01,02,33,6.50
2019,04,01,02,34,6.40
2019,04,01,02,35,6.40
2019,04,01,02,36,6.30
2019,04,01,02,37,6.30
2019,04,01,02,38,6.30
2019,04,01,02,39,6.30
2019,04,01,02,40,6.30
2019,04,01,02,41,6.20
2019,04,01,02,42,6.20
2019,04,01,02,43,6.20
2019,04,01,02,44,6.30
2019,04,01,02,45,6.30
2019,04,01,02,46,6.30
2019,04,01,02,47,6.30
2019,04,01,02,48,6.30
2019,04,01,02,49,6.30
2019,04,01,02,50,6.40
2019,04,01,02,51,6.30
2019,04,01,02,52,6.30
2019,04,01,02,53,6.30
2019,04,01,02,54,6.30
2019,04,01,02,55,6.20
2019,04,01,02,56,6.20
2019,04,01,02,57,6.20
2019,04,01,02,58,6.10
2019,04,01,02,59,6.00
2019,04,01,03,00,6.00
2019,04,01,03,01,6.00
2019,04,01,03,02,5.90
2019,04,01,03,03,5.90
2019,04,01,03,04,5.80
2019,04,01,03,05,5.80
2019,04,01,03,06,5.80
2019,04,01,03,07,5.80
2019,04,01,03,08,5.70
2019,04,01,03,09,5.70
2019,04,01,03,10,5.70
2019,04,01,03,11,5.70
2019,04,01,03,12,5.70
2019,04,01,03,13,5.70
2019,04,01,03,14,5.70
2019,04,01,03,15,5.70
2019,04,01,03,16,5.60
2019,04,01,03,17,5.60
2019,04,01,03,18,5.60
2019,04,01,03,19,5.60
2019,04,01,03,20,5.60
2019,04,01,03,21,5.60
2019,04,01,03,22,5.60
2019,04,01,03,23,5.60
2019,04,01,03,24,5.60
2019,04,01,03,25,5.60
2019,04,01,03,26,5.60
2019,04,01,03,27,5.60
2019,04,01,03,28,5.50
2019,04,01,03,29,5.50
2019,04,01,03,30,5.50
2019,04,01,03,31,5.50
2019,04,01,03,32,5.50
2019,04,01,03,33,5.40
2019,04,01,03,34,5.40
2019,04,01,03,35,5.40
2019,04,01,03,36,5.40
2019,04,01,03,37,5.40
2019,04,01,03,38,5.40
2019,04,01,03,39,5.40
2019,04,01,03,40,5.30
2019,04,01,03,41,5.30
2019,04,01,03,42,5.30
2019,04,01,03,43,5.30
2019,04,01,03,44,5.30
2019,04,01,03,45,5.30
2019,04,01,03,46,5.30
2019,04,01,03,47,5.30
2019,04,01,03,48,5.30
2019,04,01,03,49,5.30
2019,04,01,03,50,5.30
2019,04,01,03,51,5.30
2019,04,01,03,52,5.20
2019,04,01,03,53,5.20
2019,04,01,03,54,5.20
2019,04,01,03,55,5.20
2019,04,01,03,56,5.20
2019,04,01,03,57,5.20
2019,04,01,03,58,5.20
2019,04,01,03,59,5.20
2019,04,01,04,00,5.10
2019,04,01,04,01,5.10
2019,04,01,04,02,5.10
2019,04,01,04,03,5.10
2019,04,01,04,04,5.10
2019,04,01,04,05,5.20
2019,04,01,04,06,5.20
2019,04,01,04,07,5.10
2019,04,01,04,08,5.20
2019,04,01,04,09,5.20
2019,04,01,04,10,5.20
2019,04,01,04,11,5.10
2019,04,01,04,12,5.10
2019,04,01,04,13,5.10
2019,04,01,04,14,5.10
2019,04,01,04,15,5.10
2019,04,01,04,16,5.10
2019,04,01,04,17,5.10
2019,04,01,04,18,5.10
2019,04,01,04,19,5.10
2019,04,01,04,20,5.10
2019,04,01,04,21,5.10
2019,04,01,04,22,5.10
2019,04,01,04,23,5.10
2019,04,01,04,24,5.10
2019,04,01,04,25,5.10
2019,04,01,04,26,5.10
2019,04,01,04,27,5.10
2019,04,01,04,28,5.10
2019,04,01,04,29,5.10
2019,04,01,04,30,5.10
2019,04,01,04,31,5.10
2019,04,01,04,32,5.10
2019,04,01,04,33,5.20
2019,04,01,04,34,5.20
2019,04,01,04,35,5.20
2019,04,01,04,36,5.30
2019,04,01,04,37,5.30
2019,04,01,04,38,5.40
2019,04,01,04,39,5.40
2019,04,01,04,40,5.50
2019,04,01,04,41,5.50
2019,04,01,04,42,5.50
2019,04,01,04,43,5.60
2019,04,01,04,44,5.60
2019,04,01,04,45,5.60
2019,04,01,04,46,5.70
2019,04,01,04,47,5.70
2019,04,01,04,48,5.70
2019,04,01,04,49,5.80
2019,04,01,04,50,5.80
2019,04,01,04,51,5.80
2019,04,01,04,52,5.80
2019,04,01,04,53,5.90
2019,04,01,04,54,5.90
2019,04,01,04,55,5.90
2019,04,01,04,56,5.90
2019,04,01,04,57,5.90
2019,04,01,04,58,5.90
2019,04,01,04,59,5.90
2019,04,01,05,00,5.90
2019,04,01,05,01,5.80
2019,04,01,05,02,5.80
2019,04,01,05,03,5.70
2019,04,01,05,04,5.70
2019,04,01,05,05,5.60
2019,04,01,05,06,5.60
2019,04,01,05,07,5.50
2019,04,01,05,08,5.50
2019,04,01,05,09,5.40
2019,04,01,05,10,5.40
2019,04,01,05,11,5.40
2019,04,01,05,12,5.30
2019,04,01,05,13,5.30
2019,04,01,05,14,5.30
2019,04,01,05,15,5.30
2019,04,01,05,16,5.30
2019,04,01,05,17,5.40
2019,04,01,05,18,5.40
2019,04,01,05,19,5.50
2019,04,01,05,20,5.50
2019,04,01,05,21,5.60
2019,04,01,05,22,5.60
2019,04,01,05,23,5.70
2019,04,01,05,24,5.70
2019,04,01,05,25,5.80
2019,04,01,05,26,5.90
2019,04,01,05,27,6.00
2019,04,01,05,28,6.10
2019,04,01,05,29,6.20
2019,04,01,05,30,6.40
2019,04,01,05,31,6.50
2019,04,01,05,32,6.60
2019,04,01,05,33,6.70
2019,04,01,05,34,6.80
2019,04,01,05,35,6.80
2019,04,01,05,36,6.90
2019,04,01,05,37,6.90
2019,04,01,05,38,7.00
2019,04,01,05,39,7.00
2019,04,01,05,40,7.10
2019,04,01,05,41,7.10
2019,04,01,05,42,7.10
2019,04,01,05,43,7.10
2019,04,01,05,44,7.20
2019,04,01,05,45,7.20
2019,04,01,05,46,7.20
2019,04,01,05,47,7.20
2019,04,01,05,48,7.20
2019,04,01,05,49,7.20
2019,04,01,05,50,7.20
2019,04,01,05,51,7.20
2019,04,01,05,52,7.20
2019,04,01,05,53,7.20
2019,04,01,05,54,7.30
2019,04,01,05,55,7.30
2019,04,01,05,56,7.30
2019,04,01,05,57,7.30
2019,04,01,05,58,7.30
2019,04,01,05,59,7.30
2019,04,01,06,00,7.40
2019,04,01,06,01,7.40
2019,04,01,06,02,7.40
2019,04,01,06,03,7.40
2019,04,01,06,04,7.40
2019,04,01,06,05,7.40
2019,04,01,06,06,7.50
2019,04,01,06,07,7.50
2019,04,01,06,08,7.50
2019,04,01,06,09,7.60
2019,04,01,06,10,7.60
2019,04,01,06,11,7.50
2019,04,01,06,12,7.60
2019,04,01,06,13,7.60
2019,04,01,06,14,7.60
2019,04,01,06,15,7.60
2019,04,01,06,16,7.60
2019,04,01,06,17,7.60
2019,04,01,06,18,7.50
2019,04,01,06,19,7.50
2019,04,01,06,20,7.40
2019,04,01,06,21,7.40
2019,04,01,06,22,7.50
2019,04,01,06,23,7.60
2019,04,01,06,24,7.60
2019,04,01,06,25,7.60
2019,04,01,06,26,7.70
2019,04,01,06,27,7.70
2019,04,01,06,28,7.80
2019,04,01,06,29,7.80
2019,04,01,06,30,7.90
2019,04,01,06,31,7.90
2019,04,01,06,32,7.90
2019,04,01,06,33,7.90
2019,04,01,06,34,7.90
2019,04,01,06,35,7.90
2019,04,01,06,36,7.90
2019,04,01,06,37,7.90
2019,04,01,06,38,7.80
2019,04,01,06,39,7.80
2019,04,01,06,40,7.80
2019,04,01,06,41,7.80
2019,04,01,06,42,7.70
2019,04,01,06,43,7.70
2019,04,01,06,44,7.60
2019,04,01,06,45,7.60
2019,04,01,06,46,7.50
2019,04,01,06,47,7.50
2019,04,01,06,48,7.40
2019,04,01,06,49,7.40
2019,04,01,06,50,7.40
2019,04,01,06,51,7.40
2019,04,01,06,52,7.40
2019,04,01,06,53,7.30
2019,04,01,06,54,7.30
2019,04,01,06,55,7.30
2019,04,01,06,56,7.30
2019,04,01,06,57,7.30
2019,04,01,06,58,7.30
2019,04,01,06,59,7.30
2019,04,01,07,00,7.30
2019,04,01,07,01,7.30
2019,04,01,07,02,7.40
2019,04,01,07,03,7.40
2019,04,01,07,04,7.40
2019,04,01,07,05,7.40
2019,04,01,07,06,7.40
2019,04,01,07,07,7.40
2019,04,01,07,08,7.40
2019,04,01,07,09,7.40
2019,04,01,07,10,7.50
2019,04,01,07,11,7.50
2019,04,01,07,12,7.50
2019,04,01,07,13,7.50
2019,04,01,07,14,7.50
2019,04,01,07,15,7.60
2019,04,01,07,16,7.60
2019,04,01,07,17,7.60
2019,04,01,07,18,7.60
2019,04,01,07,19,7.60
2019,04,01,07,20,7.60
2019,04,01,07,21,7.60
2019,04,01,07,22,7.50
2019,04,01,07,23,7.50
2019,04,01,07,24,7.50
2019,04,01,07,25,7.50
2019,04,01,07,26,7.50
2019,04,01,07,27,7.60
2019,04,01,07,28,7.60
2019,04,01,07,29,7.60
2019,04,01,07,30,7.60
2019,04,01,07,31,7.60
2019,04,01,07,32,7.60
2019,04,01,07,33,7.70
2019,04,01,07,34,7.70
2019,04,01,07,35,7.80
2019,04,01,07,36,7.80
2019,04,01,07,37,7.80
2019,04,01,07,38,7.90
2019,04,01,07,39,8.00
2019,04,01,07,40,8.10
2019,04,01,07,41,8.10
2019,04,01,07,42,8.20
2019,04,01,07,43,8.30
2019,04,01,07,44,8.30
2019,04,01,07,45,8.40
2019,04,01,07,46,8.40
2019,04,01,07,47,8.40
2019,04,01,07,48,8.40
2019,04,01,07,49,8.40
2019,04,01,07,50,8.40
2019,04,01,07,51,8.40
2019,04,01,07,52,8.40
2019,04,01,07,53,8.50
2019,04,01,07,54,8.50
2019,04,01,07,55,8.50
2019,04,01,07,56,8.50
2019,04,01,07,57,8.60
2019,04,01,07,58,8.60
2019,04,01,07,59,8.60
2019,04,01,08,00,8.70
2019,04,01,08,01,8.70
2019,04,01,08,02,8.70
2019,04,01,08,03,8.70
2019,04,01,08,04,8.80
2019,04,01,08,05,8.80
2019,04,01,08,06,8.80
2019,04,01,08,07,8.80
2019,04,01,08,08,8.80
2019,04,01,08,09,8.80
2019,04,01,08,10,8.90
2019,04,01,08,11,8.90
2019,04,01,08,12,8.90
2019,04,01,08,13,9.00
2019,04,01,08,14,9.00
2019,04,01,08,15,9.00
2019,04,01,08,16,9.10
2019,04,01,08,17,9.10
2019,04,01,08,18,9.20
2019,04,01,08,19,9.20
2019,04,01,08,20,9.30
2019,04,01,08,21,9.30
2019,04,01,08,22,9.40
2019,04,01,08,23,9.40
2019,04,01,08,24,9.40
2019,04,01,08,25,9.50
2019,04,01,08,26,9.60
2019,04,01,08,27,9.60
2019,04,01,08,28,9.60
2019,04,01,08,29,9.70
2019,04,01,08,30,9.70
2019,04,01,08,31,9.70
2019,04,01,08,32,9.80
2019,04,01,08,33,9.80
2019,04,01,08,34,9.90
2019,04,01,08,35,9.90
2019,04,01,08,36,10.00
2019,04,01,08,37,10.00
2019,04,01,08,38,10.10
2019,04,01,08,39,10.10
2019,04,01,08,40,10.20
2019,04,01,08,41,10.20
2019,04,01,08,42,10.30
2019,04,01,08,43,10.30
2019,04,01,08,44,10.40
2019,04,01,08,45,10.50
2019,04,01,08,46,10.50
2019,04,01,08,47,10.60
2019,04,01,08,48,10.70
2019,04,01,08,49,10.80
2019,04,01,08,50,10.90
2019,04,01,08,51,10.90
2019,04,01,08,52,11.00
2019,04,01,08,53,11.10
2019,04,01,08,54,11.20
2019,04,01,08,55,11.20
2019,04,01,08,56,11.30
2019,04,01,08,57,11.30
2019,04,01,08,58,11.40
2019,04,01,08,59,11.50
2019,04,01,09,00,11.60
2019,04,01,09,01,11.60
2019,04,01,09,02,11.70
2019,04,01,09,03,11.70
2019,04,01,09,04,11.80
2019,04,01,09,05,11.90
2019,04,01,09,06,12.00
2019,04,01,09,07,12.10
2019,04,01,09,08,12.10
2019,04,01,09,09,12.10
2019,04,01,09,10,12.10
2019,04,01,09,11,12.10
2019,04,01,09,12,12.10
2019,04,01,09,13,12.10
2019,04,01,09,14,12.10
2019,04,01,09,15,12.10
2019,04,01,09,16,12.10
2019,04,01,09,17,12.10
2019,04,01,09,18,12.10
2019,04,01,09,19,12.10
2019,04,01,09,20,12.10
2019,04,01,09,21,12.10
2019,04,01,09,22,12.10
2019,04,01,09,23,12.20
2019,04,01,09,24,12.20
2019,04,01,09,25,12.30
2019,04,01,09,26,12.30
2019,04,01,09,27,12.40
2019,04,01,09,28,12.40
2019,04,01,09,29,12.50
2019,04,01,09,30,12.60
2019,04,01,09,31,12.60
2019,04,01,09,32,12.60
2019,04,01,09,33,12.50
2019,04,01,09,34,12.40
2019,04,01,09,35,12.40
2019,04,01,09,36,12.50
2019,04,01,09,37,12.50
2019,04,01,09,38,12.50
2019,04,01,09,39,12.60
2019,04,01,09,40,12.70
2019,04,01,09,41,12.70
2019,04,01,09,42,12.70
2019,04,01,09,43,12.70
2019,04,01,09,44,12.70
2019,04,01,09,45,12.70
2019,04,01,09,46,12.80
2019,04,01,09,47,12.80
2019,04,01,09,48,12.80
2019,04,01,09,49,12.90
2019,04,01,09,50,12.90
2019,04,01,09,51,13.00
2019,04,01,09,52,13.10
2019,04,01,09,53,13.10
2019,04,01,09,54,13.20
2019,04,01,09,55,13.30
2019,04,01,09,56,13.40
2019,04,01,09,57,13.50
2019,04,01,09,58,13.60
2019,04,01,09,59,13.60
2019,04,01,10,00,13.70
2019,04,01,10,01,13.80
2019,04,01,10,02,13.90
2019,04,01,10,03,13.90
2019,04,01,10,04,14.00
2019,04,01,10,05,14.00
2019,04,01,10,06,14.10
2019,04,01,10,07,14.20
2019,04,01,10,08,14.20
2019,04,01,10,09,14.20
2019,04,01,10,10,14.30
2019,04,01,10,11,14.30
2019,04,01,10,12,14.30
2019,04,01,10,13,14.30
2019,04,01,10,14,14.40
2019,04,01,10,15,14.40
2019,04,01,10,16,14.40
2019,04,01,10,17,14.50
2019,04,01,10,18,14.50
2019,04,01,10,19,14.60
2019,04,01,10,20,14.60
2019,04,01,10,21,14.60
2019,04,01,10,22,14.60
2019,04,01,10,23,14.70
2019,04,01,10,24,14.70
2019,04,01,10,25,14.70
2019,04,01,10,26,14.70
2019,04,01,10,27,14.70
2019,04,01,10,28,14.80
2019,04,01,10,29,14.80
2019,04,01,10,30,14.80
2019,04,01,10,31,14.80
2019,04,01,10,32,14.80
2019,04,01,10,33,14.80
2019,04,01,10,34,14.80
2019,04,01,10,35,14.90
2019,04,01,10,36,15.00
2019,04,01,10,37,15.00
2019,04,01,10,38,15.00
2019,04,01,10,39,15.00
2019,04,01,10,40,15.00
2019,04,01,10,41,15.10
2019,04,01,10,42,15.20
2019,04,01,10,43,15.30
2019,04,01,10,44,15.40
2019,04,01,10,45,15.40
2019,04,01,10,46,15.50
2019,04,01,10,47,15.50
2019,04,01,10,48,15.60
2019,04,01,10,49,15.60
2019,04,01,10,50,15.70
2019,04,01,10,51,15.80
2019,04,01,10,52,15.80
2019,04,01,10,53,15.90
2019,04,01,10,54,15.90
2019,04,01,10,55,16.00
2019,04,01,10,56,16.00
2019,04,01,10,57,16.10
2019,04,01,10,58,16.10
2019,04,01,10,59,16.10
2019,04,01,11,00,16.10
2019,04,01,11,01,16.10
2019,04,01,11,02,16.10
2019,04,01,11,03,16.10
2019,04,01,11,04,16.10
2019,04,01,11,05,16.10
2019,04,01,11,06,16.20
2019,04,01,11,07,16.20
2019,04,01,11,08,16.10
2019,04,01,11,09,16.00
2019,04,01,11,10,16.00
2019,04,01,11,11,15.90
2019,04,01,11,12,15.90
2019,04,01,11,13,15.80
2019,04,01,11,14,15.80
2019,04,01,11,15,15.90
2019,04,01,11,16,15.90
2019,04,01,11,17,15.90
2019,04,01,11,18,16.00
2019,04,01,11,19,16.10
2019,04,01,11,20,16.10
2019,04,01,11,21,16.10
2019,04,01,11,22,16.20
2019,04,01,11,23,16.20
2019,04,01,11,24,16.20
2019,04,01,11,25,16.20
2019,04,01,11,26,16.30
2019,04,01,11,27,16.30
2019,04,01,11,28,16.40
2019,04,01,11,29,16.40
2019,04,01,11,30,16.50
2019,04,01,11,31,16.60
2019,04,01,11,32,16.60
2019,04,01,11,33,16.70
2019,04,01,11,34,16.80
2019,04,01,11,35,16.80
2019,04,01,11,36,16.80
2019,04,01,11,37,16.80
2019,04,01,11,38,16.80
2019,04,01,11,39,16.80
2019,04,01,11,40,16.80
2019,04,01,11,41,16.80
2019,04,01,11,42,16.90
2019,04,01,11,43,16.90
2019,04,01,11,44,17.00
2019,04,01,11,45,16.90
2019,04,01,11,46,16.90
2019,04,01,11,47,16.90
2019,04,01,11,48,16.90
2019,04,01,11,49,16.90
2019,04,01,11,50,16.80
2019,04,01,11,51,16.80
2019,04,01,11,52,16.90
2019,04,01,11,53,16.90
2019,04,01,11,54,16.90
2019,04,01,11,55,16.90
2019,04,01,11,56,16.80
2019,04,01,11,57,16.90
2019,04,01,11,58,16.90
2019,04,01,11,59,17.00
2019,04,01,12,00,17.00
2019,04,01,12,01,16.90
2019,04,01,12,02,16.90
2019,04,01,12,03,16.90
2019,04,01,12,04,17.00
2019,04,01,12,05,17.10
2019,04,01,12,06,17.10
2019,04,01,12,07,17.10
2019,04,01,12,08,17.20
2019,04,01,12,09,17.20
2019,04,01,12,10,17.30
2019,04,01,12,11,17.30
2019,04,01,12,12,17.30
2019,04,01,12,13,17.30
2019,04,01,12,14,17.30
2019,04,01,12,15,17.30
2019,04,01,12,16,17.40
2019,04,01,12,17,17.40
2019,04,01,12,18,17.30
2019,04,01,12,19,17.30
2019,04,01,12,20,17.30
2019,04,01,12,21,17.30
2019,04,01,12,22,17.30
2019,04,01,12,23,17.20
2019,04,01,12,24,17.30
2019,04,01,12,25,17.30
2019,04,01,12,26,17.30
2019,04,01,12,27,17.40
2019,04,01,12,28,17.40
2019,04,01,12,29,17.50
2019,04,01,12,30,17.50
2019,04,01,12,31,17.50
2019,04,01,12,32,17.50
2019,04,01,12,33,17.50
2019,04,01,12,34,17.40
2019,04,01,12,35,17.40
2019,04,01,12,36,17.30
2019,04,01,12,37,17.20
2019,04,01,12,38,17.20
2019,04,01,12,39,17.20
2019,04,01,12,40,17.20
2019,04,01,12,41,17.30
2019,04,01,12,42,17.30
2019,04,01,12,43,17.30
2019,04,01,12,44,17.40
2019,04,01,12,45,17.40
2019,04,01,12,46,17.30
2019,04,01,12,47,17.30
2019,04,01,12,48,17.20
2019,04,01,12,49,17.10
2019,04,01,12,50,17.10
2019,04,01,12,51,17.10
2019,04,01,12,52,17.10
2019,04,01,12,53,17.20
2019,04,01,12,54,17.20
2019,04,01,12,55,17.30
2019,04,01,12,56,17.30
2019,04,01,12,57,17.40
2019,04,01,12,58,17.40
2019,04,01,12,59,17.40
2019,04,01,13,00,17.40
2019,04,01,13,01,17.50
2019,04,01,13,02,17.50
2019,04,01,13,03,17.60
2019,04,01,13,04,17.60
2019,04,01,13,05,17.70
2019,04,01,13,06,17.70
2019,04,01,13,07,17.80
2019,04,01,13,08,17.80
2019,04,01,13,09,17.80
2019,04,01,13,10,17.80
2019,04,01,13,11,17.80
2019,04,01,13,12,17.80
2019,04,01,13,13,17.80
2019,04,01,13,14,17.80
2019,04,01,13,15,17.80
2019,04,01,13,16,17.80
2019,04,01,13,17,17.80
2019,04,01,13,18,17.80
2019,04,01,13,19,17.80
2019,04,01,13,20,17.80
2019,04,01,13,21,17.80
2019,04,01,13,22,17.90
2019,04,01,13,23,17.90
2019,04,01,13,24,18.00
2019,04,01,13,25,18.00
2019,04,01,13,26,18.10
2019,04,01,13,27,18.10
2019,04,01,13,28,18.10
2019,04,01,13,29,18.10
2019,04,01,13,30,18.10
2019,04,01,13,31,18.00
2019,04,01,13,32,18.00
2019,04,01,13,33,18.00
2019,04,01,13,34,18.00
2019,04,01,13,35,18.00
2019,04,01,13,36,18.00
2019,04,01,13,37,18.00
2019,04,01,13,38,18.00
2019,04,01,13,39,18.00
2019,04,01,13,40,18.10
2019,04,01,13,41,18.10
2019,04,01,13,42,18.00
2019,04,01,13,43,18.00
2019,04,01,13,44,17.90
2019,04,01,13,45,17.90
2019,04,01,13,46,17.80
2019,04,01,13,47,17.90
2019,04,01,13,48,17.90
2019,04,01,13,49,17.80
2019,04,01,13,50,17.80
2019,04,01,13,51,17.80
2019,04,01,13,52,17.80
2019,04,01,13,53,17.80
2019,04,01,13,54,17.80
2019,04,01,13,55,17.90
2019,04,01,13,56,17.90
2019,04,01,13,57,18.00
2019,04,01,13,58,18.00
2019,04,01,13,59,18.10
2019,04,01,14,00,18.10
2019,04,01,14,01,18.20
2019,04,01,14,02,18.20
2019,04,01,14,03,18.20
2019,04,01,14,04,18.30
2019,04,01,14,05,18.30
2019,04,01,14,06,18.30
2019,04,01,14,07,18.30
2019,04,01,14,08,18.30
2019,04,01,14,09,18.30
2019,04,01,14,10,18.40
2019,04,01,14,11,18.40
2019,04,01,14,12,18.40
2019,04,01,14,13,18.40
2019,04,01,14,14,18.50
2019,04,01,14,15,18.50
2019,04,01,14,16,18.50
2019,04,01,14,17,18.50
2019,04,01,14,18,18.60
2019,04,01,14,19,18.60
2019,04,01,14,20,18.70
2019,04,01,14,21,18.70
2019,04,01,14,22,18.80
2019,04,01,14,23,18.80
2019,04,01,14,24,18.90
2019,04,01,14,25,18.90
2019,04,01,14,26,18.90
2019,04,01,14,27,18.80
2019,04,01,14,28,18.80
2019,04,01,14,29,18.70
2019,04,01,14,30,18.70
2019,04,01,14,31,18.80
2019,04,01,14,32,18.80
2019,04,01,14,33,18.90
2019,04,01,14,34,19.00
2019,04,01,14,35,19.00
2019,04,01,14,36,19.10
2019,04,01,14,37,19.20
2019,04,01,14,38,19.20
2019,04,01,14,39,19.30
2019,04,01,14,40,19.30
2019,04,01,14,41,19.30
2019,04,01,14,42,19.20
2019,04,01,14,43,19.20
2019,04,01,14,44,19.20
2019,04,01,14,45,19.20
2019,04,01,14,46,19.10
2019,04,01,14,47,19.10
2019,04,01,14,48,19.00
2019,04,01,14,49,19.00
2019,04,01,14,50,18.90
2019,04,01,14,51,18.90
2019,04,01,14,52,18.90
2019,04,01,14,53,18.90
2019,04,01,14,54,18.90
2019,04,01,14,55,18.90
2019,04,01,14,56,18.90
2019,04,01,14,57,19.00
2019,04,01,14,58,19.00
2019,04,01,14,59,19.00
2019,04,01,15,00,18.90
2019,04,01,15,01,18.80
2019,04,01,15,02,18.80
2019,04,01,15,03,18.80
2019,04,01,15,04,18.80
2019,04,01,15,05,18.90
2019,04,01,15,06,19.00
2019,04,01,15,07,19.10
2019,04,01,15,08,19.10
2019,04,01,15,09,19.20
2019,04,01,15,10,19.20
2019,04,01,15,11,19.20
2019,04,01,15,12,19.20
2019,04,01,15,13,19.20
2019,04,01,15,14,19.20
2019,04,01,15,15,19.20
2019,04,01,15,16,19.20
2019,04,01,15,17,19.20
2019,04,01,15,18,19.20
2019,04,01,15,19,19.20
2019,04,01,15,20,19.20
2019,04,01,15,21,19.30
2019,04,01,15,22,19.30
2019,04,01,15,23,19.30
2019,04,01,15,24,19.30
2019,04,01,15,25,19.30
2019,04,01,15,26,19.30
2019,04,01,15,27,19.30
2019,04,01,15,28,19.30
2019,04,01,15,29,19.40
2019,04,01,15,30,19.30
2019,04,01,15,31,19.30
2019,04,01,15,32,19.30
2019,04,01,15,33,19.30
2019,04,01,15,34,19.30
2019,04,01,15,35,19.30
2019,04,01,15,36,19.30
2019,04,01,15,37,19.30
2019,04,01,15,38,19.30
2019,04,01,15,39,19.30
2019,04,01,15,40,19.40
2019,04,01,15,41,19.40
2019,04,01,15,42,19.40
2019,04,01,15,43,19.40
2019,04,01,15,44,19.40
2019,04,01,15,45,19.40
2019,04,01,15,46,19.50
2019,04,01,15,47,19.50
2019,04,01,15,48,19.60
2019,04,01,15,49,19.60
2019,04,01,15,50,19.60
2019,04,01,15,51,19.60
2019,04,01,15,52,19.60
2019,04,01,15,53,19.60
2019,04,01,15,54,19.60
2019,04,01,15,55,19.60
2019,04,01,15,56,19.70
2019,04,01,15,57,19.70
2019,04,01,15,58,19.70
2019,04,01,15,59,19.70
2019,04,01,16,00,19.80
2019,04,01,16,01,19.80
2019,04,01,16,02,19.80
2019,04,01,16,03,19.90
2019,04,01,16,04,19.90
2019,04,01,16,05,20.00
2019,04,01,16,06,20.00
2019,04,01,16,07,20.10
2019,04,01,16,08,20.00
2019,04,01,16,09,20.00
2019,04,01,16,10,19.90
2019,04,01,16,11,19.90
2019,04,01,16,12,19.90
2019,04,01,16,13,20.00
2019,04,01,16,14,20.00
2019,04,01,16,15,20.10
2019,04,01,16,16,20.10
2019,04,01,16,17,20.10
2019,04,01,16,18,20.20
2019,04,01,16,19,20.20
2019,04,01,16,20,20.10
2019,04,01,16,21,20.10
2019,04,01,16,22,20.00
2019,04,01,16,23,20.00
2019,04,01,16,24,20.00
2019,04,01,16,25,20.10
2019,04,01,16,26,20.10
2019,04,01,16,27,20.20
2019,04,01,16,28,20.20
2019,04,01,16,29,20.20
2019,04,01,16,30,20.20
2019,04,01,16,31,20.20
2019,04,01,16,32,20.20
2019,04,01,16,33,20.10
2019,04,01,16,34,20.10
2019,04,01,16,35,20.00
2019,04,01,16,36,20.00
2019,04,01,16,37,19.90
2019,04,01,16,38,19.90
2019,04,01,16,39,20.00
2019,04,01,16,40,20.00
2019,04,01,16,41,20.00
2019,04,01,16,42,20.00
2019,04,01,16,43,19.90
2019,04,01,16,44,19.90
2019,04,01,16,45,19.90
2019,04,01,16,46,19.90
2019,04,01,16,47,19.90
2019,04,01,16,48,19.90
2019,04,01,16,49,19.90
2019,04,01,16,50,19.90
2019,04,01,16,51,19.80
2019,04,01,16,52,19.80
2019,04,01,16,53,19.80
2019,04,01,16,54,19.70
2019,04,01,16,55,19.70
2019,04,01,16,56,19.70
2019,04,01,16,57,19.70
2019,04,01,16,58,19.70
2019,04,01,16,59,19.70
2019,04,01,17,00,19.70
2019,04,01,17,01,19.70
2019,04,01,17,02,19.70
2019,04,01,17,03,19.70
2019,04,01,17,04,19.60
2019,04,01,17,05,19.60
2019,04,01,17,06,19.60
2019,04,01,17,07,19.60
2019,04,01,17,08,19.60
2019,04,01,17,09,19.50
2019,04,01,17,10,19.50
2019,04,01,17,11,19.50
2019,04,01,17,12,19.50
2019,04,01,17,13,19.50
2019,04,01,17,14,19.50
2019,04,01,17,15,19.50
2019,04,01,17,16,19.60
2019,04,01,17,17,19.60
2019,04,01,17,18,19.60
2019,04,01,17,19,19.60
2019,04,01,17,20,19.60
2019,04,01,17,21,19.60
2019,04,01,17,22,19.60
2019,04,01,17,23,19.60
2019,04,01,17,24,19.60
2019,04,01,17,25,19.70
2019,04,01,17,26,19.70
2019,04,01,17,27,19.70
2019,04,01,17,28,19.70
2019,04,01,17,29,19.70
2019,04,01,17,30,19.70
2019,04,01,17,31,19.70
2019,04,01,17,32,19.60
2019,04,01,17,33,19.60
2019,04,01,17,34,19.60
2019,04,01,17,35,19.60
2019,04,01,17,36,19.50
2019,04,01,17,37,19.40
2019,04,01,17,38,19.30
2019,04,01,17,39,19.20
2019,04,01,17,40,19.10
2019,04,01,17,41,19.10